Weather History for Winslow, AZ

Change the Weather History Date:

Sunday, May 5, 2013

  Actual Average Record
Temperature  
Mean Temperature 65 °F 60 °F  
Max Temperature 78 °F 78 °F 92 °F (1947)
Min Temperature 52 °F 43 °F 30 °F (1950)
Degree Days  
Heating Degree Days 0 6  
Month to date heating degree days 27 30  
Since 1 July heating degree days 4136 4409  
Cooling Degree Days 0 1  
Month to date cooling degree days 1 5  
Year to date cooling degree days 8 9  
Growing Degree Days 15 (Base 50)    
Moisture  
Dew Point 14 °F    
Average Humidity 16    
Maximum Humidity 21    
Minimum Humidity 10    
Precipitation  
Precipitation 0.00 in 0.01 in 0.25 in (1978)
Month to date precipitation 0.00 0.05  
Year to date precipitation 1.79 1.83  
Sea Level Pressure  
Sea Level Pressure 29.80 in    
Wind  
Wind Speed 11 mph (SSW)    
Max Wind Speed 24 mph    
Max Gust Speed 31 mph    
Visibility 10 miles    
Events      
T = Trace of Precipitation, MM = Missing Value Source: NWS Daily Summary

Daily Weather History Graph

Daily Weather History Graph

Search for Another Location

Airport:

Trip Planner

Search our weather history database for the weather conditions in past years. The results will help you decide how hot, cold, wet, or windy it might be!

Date:

Astronomy

May. 05, 2013 Rise Set
Actual Time 5:27 AM MST 7:11 PM MST
Civil Twilight 5:00 AM MST 7:39 PM MST
Nautical Twilight 4:27 AM MST 8:12 PM MST
Astronomical Twilight 3:52 AM MST 8:47 PM MST
Moon 2:50 AM MST (5/5) 3:23 PM MST (5/5)
Length of Visible Light 14h 39m
Length of Day
13h 44m
Waning Crescent, 17% of the Moon is Illuminated
May 5
Waning Crescent
May 9
New
May 17
First Quarter
May 24
Full
May 31
Last Quarter

Hourly Weather History & Observations

Time (MST) Temp. Dew Point Humidity Pressure Visibility Wind Dir Wind Speed Gust Speed Precip Events Conditions
12:56 AM 60.1 °F 12.0 °F 15% 29.74 in 10.0 mi SSW 8.1 mph - N/A   Clear
1:56 AM 57.9 °F 12.9 °F 17% 29.74 in 10.0 mi SSW 3.5 mph - N/A   Clear
2:56 AM 59.0 °F 14.0 °F 17% 29.74 in 10.0 mi South 10.4 mph - N/A   Clear
3:56 AM 55.9 °F 15.1 °F 20% 29.77 in 10.0 mi SW 11.5 mph - N/A   Clear
4:56 AM 55.0 °F 14.0 °F 20% 29.78 in 10.0 mi SSE 4.6 mph - N/A   Clear
5:56 AM 55.9 °F 12.0 °F 18% 29.82 in 10.0 mi SSE 9.2 mph - N/A   Clear
6:56 AM 57.0 °F 12.9 °F 18% 29.85 in 10.0 mi Calm Calm - N/A   Clear
7:56 AM 63.0 °F 15.1 °F 16% 29.86 in 10.0 mi SSE 13.8 mph - N/A   Clear
8:56 AM 66.0 °F 18.0 °F 16% 29.86 in 10.0 mi SE 11.5 mph 19.6 mph N/A   Clear
9:56 AM 66.9 °F 21.0 °F 17% 29.87 in 10.0 mi SE 10.4 mph 17.3 mph N/A   Clear
10:56 AM 72.0 °F 14.0 °F 11% 29.85 in 10.0 mi South 12.7 mph 21.9 mph N/A   Clear
11:56 AM 72.0 °F 12.9 °F 10% 29.82 in 10.0 mi South 11.5 mph 20.7 mph N/A   Clear
12:56 PM 75.0 °F 15.1 °F 10% 29.79 in 10.0 mi SSW 12.7 mph 21.9 mph N/A   Clear
1:56 PM 73.9 °F 16.0 °F 11% 29.79 in 10.0 mi SW 13.8 mph - N/A   Clear
2:27 PM 77.0 °F 17.6 °F 11% 29.95 in 10.0 mi South 13.8 mph 26.5 mph N/A   Clear
2:56 PM 75.9 °F 15.1 °F 10% 29.76 in 10.0 mi SSW 21.9 mph 29.9 mph N/A   Clear
3:56 PM 77.0 °F 17.1 °F 10% 29.75 in 10.0 mi SW 18.4 mph 26.5 mph N/A   Clear
4:56 PM 73.9 °F 15.1 °F 11% 29.76 in 10.0 mi SSW 18.4 mph 27.6 mph N/A   Clear
5:56 PM 73.0 °F 14.0 °F 11% 29.76 in 10.0 mi SSW 21.9 mph - N/A   Partly Cloudy
6:56 PM 69.1 °F 12.0 °F 11% 29.78 in 10.0 mi SW 16.1 mph - N/A   Partly Cloudy
7:56 PM 63.0 °F 12.0 °F 14% 29.79 in 10.0 mi WSW 8.1 mph - N/A   Clear
8:56 PM 57.0 °F 12.0 °F 17% 29.80 in 10.0 mi WSW 6.9 mph - N/A   Clear
9:56 PM 52.0 °F 12.0 °F 20% 29.81 in 10.0 mi SW 6.9 mph - N/A   Clear
10:56 PM 54.0 °F 14.0 °F 21% 29.79 in 10.0 mi SSE 4.6 mph - N/A   Clear
11:56 PM 57.0 °F 16.0 °F 20% 29.79 in 10.0 mi West 5.8 mph - N/A   Overcast